sat.trackr.live / text

‹ back to catalog

STARLINK-35365

NORAD 66186 · 2025-243K

PAYLOAD ACTIVE UNKNOWN

§ Identity

Operator
Country
US
Launch date
2025-10-26
Launch site
AFETR
Launch vehicle
Mass (kg)
RCS (m²)

Purposes: comms

External: N2YO · Heavens-Above · Gunter

§ Orbital elements

Epoch: 2026-09-19T18:22:09.524928Z

Period
93.85 min
Inclination
53.1597°
Eccentricity
0.0001758
Mean motion
15.34400913 rev/d
Perigee alt
461.5 km
Apogee alt
463.9 km
Semi-major
6,840.8 km
B*
6.6767e-4
RAAN
61.2419°
Arg perigee
64.8700°
Mean anomaly
295.2485°
Rev number
5,040

§ Raw data

STARLINK-353651 66186U 25243K   26262.76538802  .00022250  00000+0  66767-3 0  99952 66186  53.1597  61.2419 0001758  64.8700 295.2485 15.34400913 50402

JSON: /api/v1/satellites/66186 · /tle

For live sub-satellite position, see the globe view (requires WebGL).

§ Visibility from observer

Set your observer location to see the next 7 days of passes ≥ 10°. The values pass through the URL so the page stays shareable.

No JS? Fill the form by hand. The geolocation button needs JavaScript.